Regional Weather Roundup
Issued by NWS

Home | Current Version | Previous Version | Text Only | Print | Product List | Glossary Off
Versions: 1 2 3 4 5 6 7 8 9 10 11 12 13 14 15 16 17 18 19 20 21 22 23 24 25 26 27 28 29 30 31 32 33 34 35 36 37 38 39 40 41 42 43 44 45 46 47 48 49 50

000
ASUS43 KDTX 300810
RWRMI
MICHIGAN HOURLY REGIONAL WEATHER ROUNDUP
NATIONAL WEATHER SERVICE DETROIT/PONTIAC MI
400 AM EDT SAT AUG 30 2014

NOTE: "FAIR" INDICATES FEW OR NO CLOUDS BELOW 12,000 FEET WITH NO
SIGNIFICANT WEATHER AND/OR OBSTRUCTION TO VISIBILITY.

MIZ047>049-052>055-059>063-066>070-074>076-081>083-300900-
SOUTHEAST LOWER MICHIGAN

CITY           SKY/WX    TMP DP  RH WIND       PRES   REMARKS
ADRIAN         MOCLDY    69  63  81 S7        29.99F
ALMA           MOCLDY    69  64  83 S6        29.92F
ANN ARBOR      PTCLDY    68  61  78 SW5       29.98F
BAD AXE        PTCLDY    65  62  87 S9        29.96F
DETROIT CITY   PTCLDY    73  63  70 S6        29.99F
DETROIT        MOCLDY    69  63  81 S5        29.98F
FLINT          PTCLDY    73  61  65 S8        29.95F
GROSSE ILE     PTCLDY    73  66  78 S13       29.97F
HILLSDALE      PTCLDY    69  66  89 S6        29.99R
HOWELL         PTCLDY    71  63  74 S13       29.96F

CITY           SKY/WX    TMP DP  RH WIND       PRES   REMARKS
JACKSON        PTCLDY    72  64  76 S10       29.96F
LAMBERTVILLE   PTCLDY    72  61  68 S7        29.99S
LANSING        PTCLDY    69  62  78 S8        29.94F
LAPEER         NOT AVBL
MASON          PTCLDY    68  63  83 S8        29.95F
MONROE         PTCLDY    72  63  73 S9        29.97S
MT. CLEMENS    MOCLDY    69  64  83 S6        29.98F
PONTIAC        CLEAR     69  62  78 S6        29.98F
PORT HOPE        N/A     65  58  78 VRB5      29.94F
PORT HURON     PTCLDY    68  61  77 S6        29.99S
TRI CITIES     MOCLDY    69  61  75 S6        29.94F
YPSILANTI      PTCLDY    71  62  73 SE6       29.98F
$$
MIZ043>046-050>051-056>058-064>065-071>073-077>080-300900-
SOUTHWEST LOWER MICHIGAN

CITY           SKY/WX    TMP DP  RH WIND       PRES   REMARKS
BATTLE CREEK   CLEAR     72  65  78 S9        29.94F
BENTON HARBOR  PTCLDY    72  68  87 SE9       29.88F
BIG RAPIDS     CLOUDY    69  67  94 SE7       29.89F
COLDWATER      PTCLDY    73  66  78 S7        29.95F
HOLLAND        PTCLDY    72  67  84 S10       29.88F
GRAND RAPIDS   PTCLDY    71  71 100 S9        29.90F
KALAMAZOO      CLEAR     71  66  84 S8        29.92F
MARSHALL       PTCLDY    70  65  82 S7        29.94S
MUSKEGON       MOCLDY    73  65  75 SE12      29.86F
$$
MIZ016>042-300900-
NORTHERN LOWER MICHIGAN

CITY           SKY/WX    TMP DP  RH WIND       PRES   REMARKS
ALPENA         MOCLDY    65  62  90 S10       29.90F
BEAVER ISLAND  CLOUDY    72  69  90 S9        29.81F
BELLAIRE       CLOUDY    72  66  81 S5        29.83F
CADILLAC       CLOUDY    70  67  89 S10G17    29.88F
CHARLEVOIX     CLOUDY    72  68  87 S8        29.85F
FRANKFORT      PTSUNNY   74  67  78 S9        29.81F
GAYLORD        MOCLDY    66  64  93 S9        29.89F
GRAYLING       MOCLDY    69  65  88 S7        29.90F
HARBOR SPRINGS MOCLDY    72  67  83 CALM      29.84F
HOUGHTON LAKE  PTCLDY    67  63  87 S12       29.91F
MANISTEE       MOCLDY    72  66  83 S6        29.83F
OSCODA         PTCLDY    66  61  82 S6        29.92F
PELLSTON       CLOUDY    68  66  93 SE7       29.84F
TRAVERSE CITY  MOCLDY    74  66  76 S3        29.81F
$$
MIZ007>008-015-300900-
EASTERN UPPER MICHIGAN

CITY           SKY/WX    TMP DP  RH WIND       PRES   REMARKS
KINROSS        CLOUDY    66  64  94 SE5       29.85F
MACKINAC ISLAN CLOUDY    67  66  97 S9        29.83F
NEWBERRY       RAIN      68  67  98 S12       29.81F
S. S. MARIE    CLOUDY    65  63  93 SE3       29.84F FOG
$$
MIZ004>006-011>014-085-300900-
CENTRAL UPPER MICHIGAN

CITY           SKY/WX    TMP DP  RH WIND       PRES   REMARKS
MANISTIQUE     CLOUDY    67  67  99 SW9G20    29.79F FOG
ESCANABA       CLOUDY    66  64  94 NW6       29.77F
MENOMINEE      CLOUDY    66  64  94 SE8       29.78S
SAWYER-GWINN   DRIZZLE   64  63  97 S8        29.80F
$$
MIZ001>003-009>011-084-300900-
WESTERN UPPER MICHIGAN

CITY           SKY/WX    TMP DP  RH WIND       PRES   REMARKS
IRON MOUNTAIN  LGT RAIN  65  63  93 SE6       29.78F
HOUGHTON       LGT RAIN  62  61  96 CALM      29.78F
COPPER HARBOR    N/A     61  59  93 CALM      29.77F
$$

ABBREVIATIONS USED IN REMARKS
   TC - TEMPERATURE IN CELSIUS
  WCI - WIND CHILL INDEX
   HX - HEAT INDEX
  VSB - VISIBILITY



USA.gov is the U.S. government's official web portal to all federal, state and local government web resources and services.